SCP
0 0 0 0 0 0 0 0 0 0 0 0 0 0 0 0 0 0 0 0 0 0
0 0 0 0 0 0 0 0 0 0 0 0 0 0 0 0 0 0 0 0 0 0
0 0 0 0 0 0 0 0 0 0 0 0 0 0 0 0 0 0 0 0 0 0
0 0 0 0 0 0 0 0 0 0 0 0 0 0 0 0 0 0 0 0 0 0
0 0 0 0 0 0 0 0 0 0 0 0 0 0 0 0 0 0 0 0 0 0
0 0 0 0 0 0 0 0 0 0 0 0 0 0 0 0 0 0 0 0 0 0
0 0 0 0 0 0 0 0 0 0 0 0 0 0 0 0 0 0 0 0 0 0
0 0 0 0 0 0 0 0 0 0 0 0 0 0 0 0 0 0 0 0 0 0
0 0 0 0 0 0 0 0 0 0 0 0 0 0 0 0 0 0 0 0 0 0
0 0 0 0 0 0 0 0 0 0 0 0 0 0 0 0 0 0 0 0 0 0
0 0 0 0 0 0 0 0 0 0 0 0 0 0 0 0 0 0 0 0 0 0
0 0 0 0 0 0 0 0 0 0 0 0 0 0 0 0 0 0 0 0 0 0
0 0 0 0 0 0 0 0 0 0 0 0 0 0 0 0 0 0 0 0 0 0
0 0 0 0 0 0 0 0 0 0 0 0 0 0 0 0 0 0 0 0 0 0
Wind_Speed_500mb
54 54 54 52 50 48 45 43 43 39 38 36 35 35 36 36 37 37 37 39 39 42
59 60 59 58 54 50 47 44 40 37 36 36 36 36 36 37 38 39 39 40 41 43
63 61 58 56 53 49 46 42 39 37 35 34 35 35 36 36 36 38 37 37 39 40
71 65 62 60 55 52 47 43 39 37 35 34 34 35 36 37 37 39 38 38 40 40
77 70 68 64 59 54 49 43 40 38 37 35 35 36 36 36 36 39 41 42 44 45
80 75 72 67 60 55 48 43 40 38 38 38 38 37 38 41 43 45 46 46 47 48
78 79 74 68 60 54 46 38 38 45 51 42 41 41 40 42 43 43 44 44 43 44
70 79 71 67 60 51 43 56 55 50 46 44 44 41 38 39 42 45 45 45 46 46
76 75 70 66 63 61 61 50 50 53 48 44 43 39 39 41 46 48 50 50 49 50
82 73 66 66 58 55 57 56 57 57 50 49 46 40 42 45 50 53 52 53 54 56
76 67 55 62 67 70 63 61 60 55 50 50 49 45 45 47 52 57 58 57 57 57
74 70 71 59 63 64 59 61 57 50 49 49 49 45 44 47 53 58 60 59 58 56
76 73 71 70 62 63 59 54 48 49 47 47 48 43 44 44 52 59 60 60 63 61
70 72 72 57 50 51 50 50 47 46 43 43 45 45 45 45 49 53 56 59 59 59
Wind_Direction_500mb
281 276 272 268 267 266 262 260 261 262 265 268 274 277 279 281 282 282 281 280 278 278
283 277 273 271 267 264 261 260 261 263 267 272 277 281 284 284 284 283 282 282 280 280
282 276 271 267 264 261 260 261 264 267 271 275 278 280 282 284 285 286 287 287 286 285
278 272 267 263 260 259 260 263 266 270 273 276 278 282 284 286 287 288 289 289 289 290
276 269 265 262 258 257 259 261 264 269 273 278 282 284 286 287 287 288 289 290 290 292
273 269 266 262 258 256 257 259 264 269 274 278 281 282 286 288 289 289 289 290 291 292
272 275 270 264 259 257 257 262 276 284 278 277 280 282 285 285 287 289 291 294 295 295
291 277 272 270 263 259 266 285 274 265 271 276 279 281 282 282 287 289 292 295 298 299
301 289 279 267 266 272 271 269 273 272 276 279 279 282 282 286 288 290 292 294 296 297
301 293 281 266 263 268 274 274 273 270 275 279 281 283 286 288 289 290 292 294 297 297
311 303 286 265 264 267 269 271 268 271 274 276 279 284 286 287 287 289 291 294 295 295
313 302 286 281 275 271 271 270 268 270 271 276 283 284 284 285 286 289 292 295 294 294
301 305 302 276 284 267 262 262 263 269 275 279 286 291 288 286 288 289 294 295 294 294
308 311 306 283 271 264 260 262 264 272 281 294 297 299 296 293 289 292 293 293 293 294
Wind_Speed_850mb
54 54 54 52 50 48 45 43 43 39 38 36 35 35 36 36 37 37 37 39 39 42
59 60 59 58 54 50 47 44 40 37 36 36 36 36 36 37 38 39 39 40 41 43
63 61 58 56 53 49 46 42 39 37 35 34 35 35 36 36 36 38 37 37 39 40
71 65 62 60 55 52 47 43 39 37 35 34 34 35 36 37 37 39 38 38 40 40
77 70 68 64 59 54 49 43 40 38 37 35 35 36 36 36 36 39 41 42 44 45
80 75 72 67 60 55 48 43 40 38 38 38 38 37 38 41 43 45 46 46 47 48
78 79 74 68 60 54 46 38 38 45 51 42 41 41 40 42 43 43 44 44 43 44
70 79 71 67 60 51 43 56 55 50 46 44 44 41 38 39 42 45 45 45 46 46
76 75 70 66 63 61 61 50 50 53 48 44 43 39 39 41 46 48 50 50 49 50
82 73 66 66 58 55 57 56 57 57 50 49 46 40 42 45 50 53 52 53 54 56
76 67 55 62 67 70 63 61 60 55 50 50 49 45 45 47 52 57 58 57 57 57
74 70 71 59 63 64 59 61 57 50 49 49 49 45 44 47 53 58 60 59 58 56
76 73 71 70 62 63 59 54 48 49 47 47 48 43 44 44 52 59 60 60 63 61
70 72 72 57 50 51 50 50 47 46 43 43 45 45 45 45 49 53 56 59 59 59
Wind_Direction_850mb
281 276 272 268 267 266 262 260 261 262 265 268 274 277 279 281 282 282 281 280 278 278
283 277 273 271 267 264 261 260 261 263 267 272 277 281 284 284 284 283 282 282 280 280
282 276 271 267 264 261 260 261 264 267 271 275 278 280 282 284 285 286 287 287 286 285
278 272 267 263 260 259 260 263 266 270 273 276 278 282 284 286 287 288 289 289 289 290
276 269 265 262 258 257 259 261 264 269 273 278 282 284 286 287 287 288 289 290 290 292
273 269 266 262 258 256 257 259 264 269 274 278 281 282 286 288 289 289 289 290 291 292
272 275 270 264 259 257 257 262 276 284 278 277 280 282 285 285 287 289 291 294 295 295
291 277 272 270 263 259 266 285 274 265 271 276 279 281 282 282 287 289 292 295 298 299
301 289 279 267 266 272 271 269 273 272 276 279 279 282 282 286 288 290 292 294 296 297
301 293 281 266 263 268 274 274 273 270 275 279 281 283 286 288 289 290 292 294 297 297
311 303 286 265 264 267 269 271 268 271 274 276 279 284 286 287 287 289 291 294 295 295
313 302 286 281 275 271 271 270 268 270 271 276 283 284 284 285 286 289 292 295 294 294
301 305 302 276 284 267 262 262 263 269 275 279 286 291 288 286 288 289 294 295 294 294
308 311 306 283 271 264 260 262 264 272 281 294 297 299 296 293 289 292 293 293 293 294